Preview of NWS' New Version of Forecast
This preview is not operational and should not be used for support decisions.

Regional Weather Roundup (RWR)

Issued by National Weather Service (NWS)

                            
000
ASUS43 KLSX 192157
RWRMO 

WEATHER SUMMARY FOR MISSOURI
NATIONAL WEATHER SERVICE SPRINGFIELD MO
500 PM CDT WED JUN 19 2019

NOTE: "FAIR" INDICATES FEW OR NO CLOUDS BELOW 12,000 FEET WITH NO
       SIGNIFICANT WEATHER AND/OR OBSTRUCTIONS TO VISIBILITY.
       CURRENT SKY AND/OR WEATHER CONDITIONS ARE NOT AVAILABLE FOR
       CHILLICOTHE AND FARMINGTON.

MOZ001>031-035>038-043-044-053-054-192300-
...NORTHERN AND WESTERN MISSOURI...
  
CITY           SKY/WX    TMP DP  RH WIND       PRES   REMARKS
KANSAS CTY INT PTSUNNY   74  64  71 NW8       29.72R                  
LEE'S SUMMIT   PTSUNNY   76  62  62 NW12      29.70S                  
ST JOSEPH      PTSUNNY   75  63  66 N12       29.71F                  
CHILLICOTHE      N/A     71  65  81 N7        29.69R                  
KIRKSVILLE     CLOUDY    68  66  94 NW8       29.66S                  
     
$$
MOZ066>068-077>081-088>096-101>105-192300-
...SOUTHWEST MISSOURI...
  
CITY           SKY/WX    TMP DP  RH WIND       PRES   REMARKS
SPRINGFIELD    PTSUNNY   78  66  66 NW12G22   29.72S                  
JOPLIN         PTSUNNY   78  68  71 NW10      29.73F                  
BRANSON        MOSUNNY   82  66  57 W9        29.74S                  
               
$$
MOZ032>034-039>042-045>050-055>058-069>072-192300-
...CENTRAL MISSOURI...  
  
CITY           SKY/WX    TMP DP  RH WIND       PRES   REMARKS
COLUMBIA       PTSUNNY   77  66  69 SW14      29.65F                  
ROLLA          LGT RAIN  74  66  76 W6        29.69F                  
SEDALIA        MOSUNNY   75  66  73 NW14G22   29.68S                  
WARRENSBURG    MOSUNNY   77  63  61 W15G21    29.68S                  
               
$$
MOZ051-052-059>065-192300-
...EAST CENTRAL MISSOURI...
  
CITY           SKY/WX    TMP DP  RH WIND       PRES   REMARKS
ST LOUIS INTL  PTSUNNY   80  64  58 W9        29.65S                  
                   
$$
MOZ072>076-082>087-097>100-106>115-192300-
...SOUTH CENTRAL AND SOUTHEAST MISSOURI...
  
CITY           SKY/WX    TMP DP  RH WIND       PRES   REMARKS
CAPE GIRARDEAU FAIR      77  68  73 CALM      29.67S                  
POPLAR BLUFF   FAIR      85  73  67 W7        29.65S HX  91           
WEST PLAINS    MOSUNNY   81  68  64 W7        29.71F                  
                                       
$$